Time,TemperatureF,DewpointF,PressureIn,WindDirection,WindDirectionDegrees,WindSpeedMPH,WindSpeedGustMPH,Humidity,HourlyPrecipIn,Conditions,Clouds,dailyrainin,SoftwareType,DateUTC
2013-06-08 21:21:00,63.9,43.3,30.00,SSE,158,0.0,0.0,47,0.00,,-RA,0.00,VWS V14.01,2013-06-09 01:21:00,
2013-06-08 21:22:00,63.9,43.8,30.00,SSE,158,0.0,0.0,48,0.00,,-RA,0.00,VWS V14.01,2013-06-09 01:22:00,
2013-06-08 21:27:00,63.5,44.0,30.00,SSE,158,0.0,0.0,49,0.00,,-RA,0.00,VWS V14.01,2013-06-09 01:27:00,
2013-06-08 21:32:00,63.1,44.2,29.97,SSE,158,0.0,0.0,50,0.00,,-RA,0.00,VWS V14.01,2013-06-09 01:32:00,
2013-06-08 21:37:00,62.8,44.4,29.97,SSE,158,0.0,0.0,51,0.00,,-RA,0.00,VWS V14.01,2013-06-09 01:37:00,
2013-06-08 21:42:00,62.6,44.2,29.97,SSE,158,0.0,0.0,51,0.00,,-RA,0.00,VWS V14.01,2013-06-09 01:42:00,
2013-06-08 21:47:00,62.2,44.9,29.97,NNW,338,0.0,0.0,53,0.00,,-RA,0.00,VWS V14.01,2013-06-09 01:47:00,
2013-06-08 21:52:00,61.9,45.1,29.97,NNW,338,0.0,0.0,54,0.00,,-RA,0.00,VWS V14.01,2013-06-09 01:52:00,
2013-06-08 21:57:00,61.9,45.1,29.97,South,180,0.0,0.0,54,0.00,,-RA,0.00,VWS V14.01,2013-06-09 01:57:00,
2013-06-08 22:02:00,61.7,45.9,30.00,South,180,0.0,0.0,56,0.00,,-RA,0.00,VWS V14.01,2013-06-09 02:02:00,
2013-06-08 22:07:00,61.5,45.7,30.00,SSE,158,0.0,0.0,56,0.00,,-RA,0.00,VWS V14.01,2013-06-09 02:07:00,
2013-06-08 22:12:00,61.3,46.0,30.00,SSE,158,0.0,0.0,57,0.00,,-RA,0.00,VWS V14.01,2013-06-09 02:12:00,
2013-06-08 22:17:00,61.2,46.3,30.00,SSE,158,0.0,0.0,58,0.00,,-RA,0.00,VWS V14.01,2013-06-09 02:17:00,
2013-06-08 22:22:00,61.0,46.6,30.00,North,0,0.0,0.0,59,0.00,,-RA,0.00,VWS V14.01,2013-06-09 02:22:00,
2013-06-08 22:27:00,60.8,46.8,30.00,North,0,0.0,0.0,60,0.00,,-RA,0.00,VWS V14.01,2013-06-09 02:27:00,
2013-06-08 22:32:00,60.6,47.5,30.00,North,0,0.0,0.0,62,0.00,,-RA,0.00,VWS V14.01,2013-06-09 02:32:00,
2013-06-08 22:37:00,60.4,47.8,30.00,North,0,0.0,0.0,63,0.00,,-RA,0.00,VWS V14.01,2013-06-09 02:37:00,
2013-06-08 22:42:00,60.3,47.6,30.00,North,0,0.0,0.0,63,0.00,,-RA,0.00,VWS V14.01,2013-06-09 02:42:00,
2013-06-08 22:47:00,60.1,47.9,30.00,North,0,0.0,0.0,64,0.00,,-RA,0.00,VWS V14.01,2013-06-09 02:47:00,
2013-06-08 22:52:00,59.9,48.1,30.00,ENE,68,0.0,0.0,65,0.00,,-RA,0.00,VWS V14.01,2013-06-09 02:52:00,
2013-06-08 22:57:00,59.7,48.4,30.00,ENE,68,0.0,0.0,66,0.00,,-RA,0.00,VWS V14.01,2013-06-09 02:57:00,
2013-06-08 23:02:00,59.7,48.4,30.03,ENE,68,0.0,0.0,66,0.00,,-RA,0.00,VWS V14.01,2013-06-09 03:02:00,
2013-06-08 23:07:00,59.5,48.6,30.03,ENE,68,0.0,0.0,67,0.00,,-RA,0.00,VWS V14.01,2013-06-09 03:07:00,
2013-06-08 23:12:00,59.4,48.4,30.03,ENE,68,0.0,0.0,67,0.00,,-RA,0.00,VWS V14.01,2013-06-09 03:12:00,
2013-06-08 23:17:00,59.4,48.8,30.03,ENE,68,0.0,0.0,68,0.00,,-RA,0.00,VWS V14.01,2013-06-09 03:17:00,
2013-06-08 23:22:00,59.2,48.6,30.03,ENE,68,0.0,0.0,68,0.00,,-RA,0.00,VWS V14.01,2013-06-09 03:22:00,
2013-06-08 23:27:00,59.2,48.6,30.03,ENE,68,0.0,0.0,68,0.00,,-RA,0.00,VWS V14.01,2013-06-09 03:27:00,
2013-06-08 23:32:00,59.0,48.9,30.00,ENE,68,0.0,0.0,69,0.00,,-RA,0.00,VWS V14.01,2013-06-09 03:32:00,
2013-06-08 23:37:00,58.8,48.7,30.00,ENE,68,0.0,0.0,69,0.00,,-RA,0.00,VWS V14.01,2013-06-09 03:37:00,
2013-06-08 23:42:00,58.8,49.1,30.00,ENE,68,0.0,0.0,70,0.00,,-RA,0.00,VWS V14.01,2013-06-09 03:42:00,
2013-06-08 23:47:00,58.6,48.9,30.00,ENE,68,0.0,0.0,70,0.00,,-RA,0.00,VWS V14.01,2013-06-09 03:47:00,
2013-06-08 23:52:00,58.5,49.1,30.00,ENE,68,0.0,0.0,71,0.00,,-RA,0.00,VWS V14.01,2013-06-09 03:52:00,
2013-06-08 23:57:00,58.5,49.1,30.00,ENE,68,0.0,0.0,71,0.00,,-RA,0.00,VWS V14.01,2013-06-09 03:57:00,